Reflectivity
-5 4 4 -20 -20 -20 -20 -18 11 -20 -20 -20 -20 -20 -20 -20 -20 -20 -20 -20 -20 -20 -20 -20 -20 -20 -20 -20 -20 -20 -20 -20 -20 -20 -20 -20 -20 -20 -20 -20 -20 -20 -20 -20
9 -3 -20 -20 -20 -20 1 -5 -2 1 -20 -16 -20 -20 -20 -20 -20 -20 -20 -20 -20 -20 -20 -20 -20 -20 -20 -20 -20 -20 -20 -20 -20 -20 -20 -20 -20 -20 -20 -20 -20 -20 -20 -20
2 -20 -20 -20 -20 6 -13 6 -19 16 -7 -17 -3 -20 -20 -20 -20 -20 -20 -20 -20 -20 -20 -20 -20 -20 -20 -20 -20 -20 -20 -20 -20 -20 -20 -20 -20 -20 -20 -20 -20 -20 -20 -20
9 -20 -20 5 -3 -0 6 -20 -17 16 28 15 -8 -20 -20 -20 -20 -20 -20 -20 -20 -20 -20 -20 -20 -20 -20 -20 -20 -20 -20 -20 -20 -20 -20 -20 -20 -20 -20 -20 -20 -20 -20 -20
2 -20 -20 14 -20 1 -18 6 -20 -15 31 23 -20 -20 -20 -20 -20 -20 -20 -20 -20 -20 -20 -20 -20 -20 -20 -20 -20 -20 -20 -20 -20 -20 -20 -20 -20 -20 -20 -20 -20 -20 -20 -20
-20 23 16 -20 -20 -20 -1 24 31 28 33 17 10 -20 -20 -20 -20 -20 -20 -20 -20 -20 -20 -20 -20 -20 -20 -20 -20 -20 -20 -20 -20 -20 -20 -20 -20 -20 -20 -20 -20 -20 -20 -20
-15 -6 -20 22 5 -3 12 26 40 34 13 12 -20 -20 -20 -20 -20 -20 -20 -20 -20 -20 -20 -20 -20 -20 -20 -20 -20 -20 -20 -20 -20 -20 -20 -20 -20 -20 -20 -20 -20 -20 -20 -20
9 -19 -13 22 17 19 -1 33 39 32 10 -16 -20 -20 -20 -20 -20 -20 -20 -20 -20 -20 -20 -20 -20 -20 -20 -20 -20 -20 -20 -20 -20 -20 -20 -20 -20 -20 -20 -20 -20 -20 -20 -20
9 5 -20 -20 -19 22 14 38 37 28 -20 -20 -20 -20 -20 -20 -20 -20 -20 -20 -20 -20 -20 -20 -20 -20 -20 -20 -20 -20 -20 -20 -20 -20 -20 -20 -20 -20 -20 -20 -20 -20 -20 -20
18 27 -11 10 10 17 33 25 36 15 -19 4 -20 -20 -20 -20 -20 -20 -20 -20 -20 -20 -20 -20 -20 -20 -20 -20 -20 -20 -20 -20 -20 -20 -20 -20 -20 -20 -20 -20 -20 -20 -20 -20
27 29 24 33 22 27 40 38 36 29 16 8 -20 -20 -20 -20 -20 -20 -20 -20 -20 -20 -20 -20 -20 -20 -20 -20 -20 -20 -20 -20 -20 -20 -20 -20 -20 -20 -20 -20 -20 -20 -20 -20
14 32 33 26 7 18 32 31 9 -20 14 15 -19 -20 -20 -20 -20 -20 -20 -20 -20 -20 -20 -20 -20 -20 -20 -20 -20 -20 -20 -20 -20 -20 -20 -20 -20 -20 -20 -20 -20 -20 -20 -20
32 31 30 28 37 19 34 12 -20 -20 -20 2 -20 -20 -20 -20 -20 -20 -20 -20 -20 -20 -20 -20 -20 -20 -20 -20 -20 -20 -20 -20 -20 -20 -20 -20 -20 -20 -20 -20 -20 -20 -20 -20
26 5 37 32 17 23 1 -6 -18 -20 -20 -20 -20 -20 -20 -20 -20 -20 -20 -20 -20 -20 -20 -20 -20 -20 -20 -20 -20 -20 -20 -20 -20 -20 -20 -20 -20 -20 -20 -20 -20 -20 -20 -20
25 34 38 30 -6 -15 18 14 9 -7 -8 -20 -20 -20 -20 -20 -20 -20 -20 -20 -20 -20 -20 -20 -20 -20 -20 -20 -20 -20 -20 -20 -20 -20 -20 -20 -20 -20 -20 -20 -20 -20 -20 -20
-16 20 23 7 -20 -20 -20 -20 -20 -20 -20 -20 -20 -20 -20 -20 -20 -20 -20 -20 -20 -20 -20 -20 -20 -20 -20 -20 -20 -20 -20 -20 -20 -20 -20 -20 -20 -20 -20 -20 -20 -20 -20 -20
6 -18 5 -20 -20 -20 -20 -20 -20 -1 -20 -20 -13 -8 -20 -20 -20 -20 -20 -20 -20 -20 -20 -20 -20 -20 -20 -20 -20 -20 -20 -20 -20 -20 -20 -20 -20 -20 -20 -20 -20 -20 -20 -20
-20 -20 -8 -20 -20 -20 -20 -20 -20 -20 -20 -20 -20 -20 -20 -20 -20 -20 -20 -20 -20 -20 -20 -20 -20 -20 -20 -20 -20 -20 -20 -20 -20 -20 -20 -20 -20 -20 -20 -20 -20 -20 -20 -20
-20 -3 11 -20 -20 -20 -20 -20 -20 -20 -20 -20 -20 -20 -20 -20 -20 -20 -20 -20 -20 -20 -20 -20 -20 -20 -20 -20 -20 -20 -20 -20 -20 -20 -20 -20 -20 -20 -20 -20 -20 -20 -20 -20
-6 -20 -20 -20 -20 -20 -20 -20 -20 -20 -20 -20 -20 -20 -20 -20 -20 -20 -20 -20 -20 -20 -20 -20 -20 -20 -20 -20 -20 -20 -20 -20 -20 -20 -20 -20 -20 -20 -20 -20 -20 -20 -20 -20
-16 7 -14 -0 -20 -20 -20 -20 -20 -20 -20 -20 -20 -20 -20 -20 -20 -20 -20 -20 -20 -20 -20 -20 -20 -20 -20 -20 -20 -20 -20 -20 -20 -20 -20 -20 -20 -20 -20 -20 -20 -20 -20 -20
-19 -1 13 -16 -10 -14 -20 -20 -20 -20 -20 -20 -20 -20 -20 -20 -20 -20 -20 -20 -20 -20 -20 -20 -20 -20 -20 -20 -20 -20 -20 -20 -20 -20 -20 -20 -20 -20 -20 -20 -20 -20 -20 -20
-7 -20 -20 -20 -13 -9 -20 -20 -20 -20 -20 -20 -20 -20 -20 -20 -20 -20 -20 -20 -20 -20 -20 -20 -20 -20 -20 -20 -20 -20 -20 -20 -20 -20 -20 -20 -20 -20 -20 -20 -20 -20 -20 -20
-20 -20 -20 -20 -20 -20 -20 -20 -20 -20 -20 -20 -20 -20 -20 -20 -20 -20 -20 -20 -20 -20 -20 -20 -20 -20 -20 -20 -20 -20 -20 -20 -20 -20 -20 -20 -20 -20 -20 -20 -20 -20 -20 -20
-20 -20 -20 -20 -20 -20 -20 -20 -20 -20 -20 -20 -20 -20 -20 -20 -20 -20 -20 -20 -20 -20 -20 -20 -20 -20 -20 -20 -20 -20 -20 -20 -20 -20 -20 -20 -20 -20 -20 -20 -20 -20 -20 -20
-20 -20 -20 -20 -3 -19 -20 -20 -20 -20 -20 -20 -20 -20 -20 -20 -20 -20 -20 -20 -20 -20 -20 -20 -20 -20 -20 -20 -20 -20 -20 -20 -20 -20 -20 -20 -20 -20 -20 -20 -20 -20 -20 -20
Wind_Speed
12 10 17 22 22 19 16 18 15 17 15 22 21 22 12 11 13 10 9 7 8 11 9 6 5 6 6 6 7 7 8 8 6 4 6 6 5 4 5 5 7 7 7 7
14 22 25 13 15 18 20 22 21 11 20 19 21 19 13 11 16 14 11 9 10 12 9 6 6 7 7 6 8 9 8 9 8 6 5 5 5 5 5 4 6 7 7 8
19 19 17 17 19 20 24 20 17 15 20 7 7 10 11 11 13 12 9 8 13 16 12 8 7 8 8 8 8 8 8 9 9 9 8 6 5 4 4 4 4 5 7 7
16 19 20 18 24 20 24 22 22 21 17 10 10 5 17 23 18 13 9 7 14 14 12 9 9 8 8 6 7 7 7 7 7 7 6 7 5 5 3 3 4 5 7 7
9 10 14 18 23 16 20 13 23 24 15 6 6 5 10 12 18 14 10 9 14 14 13 10 10 9 8 7 7 7 8 8 8 8 8 7 7 4 3 4 6 6 6 7
12 7 13 20 19 23 17 15 21 23 7 5 12 7 6 8 13 13 9 10 14 14 12 11 10 9 7 7 7 7 8 8 8 9 9 9 8 7 5 5 4 4 4 4
14 18 10 14 11 16 26 17 9 6 3 4 16 8 9 4 7 16 15 13 14 13 13 12 10 9 7 8 7 7 7 8 8 9 8 8 8 8 7 5 4 5 4 3
9 10 16 20 17 11 24 8 5 5 10 6 8 8 5 6 8 11 12 14 14 13 12 12 10 9 9 8 8 8 8 8 8 8 8 7 8 5 4 5 4 3 3 2
3 10 6 12 11 12 8 14 20 9 8 7 5 3 4 8 6 10 13 15 15 13 13 12 10 10 9 8 8 8 8 8 8 8 7 7 7 7 5 6 5 3 3 3
3 9 2 9 15 15 8 7 10 5 8 7 6 8 5 9 9 7 14 15 14 12 14 11 11 10 7 8 8 9 8 8 7 8 7 6 6 6 5 5 5 5 4 5
6 4 4 6 10 12 8 3 12 5 2 5 6 2 9 9 12 11 11 16 16 13 14 13 11 9 9 8 8 8 8 8 7 7 7 7 6 5 5 5 5 4 5 5
9 4 5 2 6 14 12 5 5 1 2 1 4 2 7 9 7 10 9 15 15 12 12 12 11 10 9 8 8 8 7 7 7 7 7 7 5 6 5 4 4 5 5 5
12 7 2 4 4 4 9 10 5 8 3 4 3 3 6 7 7 4 10 12 13 13 11 10 11 10 9 8 8 7 7 7 7 7 7 6 6 5 5 5 4 5 5 5
10 4 2 3 6 9 8 8 6 8 2 2 2 7 6 7 9 7 9 10 13 13 13 11 11 9 8 8 8 8 8 7 6 6 7 6 5 4 3 3 4 5 5 6
4 4 11 21 13 17 17 17 15 10 8 1 4 6 10 11 12 9 7 10 13 13 13 12 11 9 8 8 8 8 8 7 6 6 7 5 4 3 2 3 4 5 6 6
10 6 15 9 8 12 11 13 14 11 7 8 9 7 4 6 9 10 10 10 13 13 13 11 11 10 10 9 8 8 8 7 7 6 6 4 3 2 2 3 5 6 6 7
6 5 5 4 3 5 1 12 13 11 10 8 12 8 3 6 8 9 10 10 9 9 11 11 10 9 8 9 10 9 8 7 7 6 5 4 2 2 2 4 5 6 6 6
9 3 4 1 1 1 2 1 8 11 7 10 9 6 2 7 9 12 6 8 9 10 11 9 8 8 9 9 9 9 8 7 6 5 4 3 1 2 4 4 6 6 5 6
8 5 3 1 2 6 1 2 1 6 10 7 7 9 11 10 8 8 10 11 9 9 8 8 8 10 11 9 10 10 8 7 6 5 4 3 3 3 4 6 6 6 5 6
2 5 1 4 1 2 2 3 6 2 2 7 5 9 15 7 5 5 7 9 10 10 9 11 11 11 11 9 9 9 7 6 5 4 3 2 1 3 5 5 6 5 5 7
3 2 4 3 3 6 2 1 5 4 3 7 7 10 11 6 1 13 11 10 8 9 11 11 9 9 8 8 8 8 7 6 5 3 2 1 3 4 4 5 4 5 6 6
5 6 4 3 1 7 4 3 2 2 3 4 8 10 18 15 14 13 12 10 10 10 8 8 10 9 7 7 8 7 7 6 4 3 0 3 3 3 4 5 4 6 6 6
6 6 7 8 7 2 4 4 0 2 4 6 10 11 16 14 13 11 10 10 8 8 7 8 9 9 6 7 7 7 6 5 3 1 2 3 4 5 4 5 6 5 5 5
3 1 2 4 3 4 5 3 1 5 8 9 9 11 12 14 11 11 10 9 7 6 6 7 8 8 7 6 6 7 6 4 2 1 3 4 5 6 5 4 4 4 4 5
2 6 6 2 3 3 2 4 7 10 11 10 10 10 11 13 9 10 8 7 7 6 5 6 7 7 7 6 6 5 5 4 3 4 4 5 3 5 5 5 4 4 5 7
5 6 5 4 9 4 5 9 10 13 10 9 14 10 9 9 9 8 7 6 6 7 5 6 7 8 7 7 6 6 5 4 4 3 4 4 3 4 4 5 7 10 15 20
Wind_Direction
201 211 216 211 208 233 250 253 239 239 226 223 236 238 243 232 249 248 248 228 156 126 116 134 135 113 90 88 111 103 106 114 106 101 100 88 91 78 65 60 63 54 44 50
231 222 223 228 234 236 245 252 258 261 241 216 238 228 227 235 242 223 216 220 158 121 122 154 132 102 88 82 65 59 65 72 73 77 86 95 98 92 98 80 65 65 50 39
215 239 231 238 237 236 238 241 246 240 256 232 236 258 249 249 231 226 216 222 145 140 139 152 120 108 88 73 68 73 74 77 82 91 95 99 94 73 69 74 69 60 65 46
236 236 237 231 238 232 239 226 249 255 257 197 192 259 220 234 225 227 208 187 138 140 135 145 129 103 92 90 85 83 85 102 115 125 126 115 105 106 110 103 98 88 77 61
220 212 221 235 231 238 252 218 237 251 229 172 242 216 244 266 208 205 188 191 145 138 138 137 124 117 109 90 87 79 73 66 67 76 86 93 97 96 84 76 76 82 74 78
241 234 241 234 225 229 272 217 251 265 196 227 192 190 253 236 178 171 177 146 136 135 132 122 115 109 109 100 93 91 86 75 69 72 70 80 89 86 75 58 53 44 63 59
231 242 240 237 266 234 233 202 215 196 195 228 183 201 253 57 82 171 160 139 138 135 134 130 132 131 133 121 115 110 97 89 81 79 77 78 81 83 71 66 55 48 37 31
222 247 199 208 209 244 214 188 231 185 164 167 129 204 197 132 111 112 129 134 138 145 139 141 145 141 136 139 133 117 111 104 96 92 85 76 77 80 73 67 57 44 50 25
240 231 172 216 180 232 154 220 231 271 166 123 175 159 54 115 78 129 138 144 153 154 146 151 144 138 143 136 135 125 116 110 107 103 94 86 78 75 76 61 57 32 28 15
181 287 164 224 171 237 242 162 231 246 165 153 176 177 169 161 154 162 150 158 157 153 150 152 145 141 141 136 127 124 125 120 111 101 100 93 86 76 71 70 47 33 7 21
173 199 271 246 181 185 204 201 232 225 98 155 134 82 146 152 157 170 167 162 160 159 157 151 144 140 129 123 131 125 119 121 115 111 99 90 80 68 67 62 39 20 6 359
176 279 250 320 290 190 173 254 292 311 61 297 144 119 78 99 115 154 173 159 157 155 152 147 140 132 131 138 135 136 136 124 118 113 104 97 83 68 58 47 30 14 1 347
164 222 213 118 35 113 180 243 288 311 346 205 66 169 109 110 109 146 144 146 151 145 142 145 138 141 146 148 146 142 133 124 123 113 109 98 80 63 46 35 16 0 349 333
182 192 270 284 176 151 168 198 242 244 337 347 25 126 135 135 137 140 143 145 147 151 152 152 150 150 152 150 146 142 124 121 116 108 102 92 81 64 45 19 1 341 330 325
270 278 243 253 153 159 160 182 215 218 215 206 257 162 177 169 162 160 153 137 148 160 161 159 150 153 152 146 141 131 123 121 127 113 100 96 85 66 34 1 343 324 318 305
214 291 305 92 143 156 178 194 205 223 213 239 277 302 139 112 126 132 158 161 166 170 162 149 150 155 152 145 138 125 124 123 120 115 115 105 84 31 16 347 314 307 301 300
221 245 307 61 126 101 325 205 212 212 217 215 225 238 251 118 129 149 158 163 159 158 151 151 156 151 141 138 131 129 125 125 118 117 115 115 90 6 341 314 313 307 306 308
187 242 292 347 146 79 219 36 227 215 214 213 235 261 39 129 72 50 43 138 145 153 150 141 137 127 123 118 119 116 117 117 119 125 130 119 101 352 330 319 311 313 306 309
175 176 328 106 254 310 267 23 152 176 244 211 210 209 115 110 68 32 24 64 93 95 97 107 106 111 107 107 109 111 108 118 133 130 120 83 29 339 320 313 309 312 320 313
68 79 51 357 121 244 71 350 314 354 308 346 281 183 140 131 127 182 106 74 67 66 75 90 95 98 101 109 109 113 128 136 132 107 81 66 312 304 297 299 322 308 314 300
145 145 183 218 344 309 100 145 315 103 259 324 323 134 133 90 136 125 100 84 80 84 92 93 93 103 109 114 120 113 123 119 112 114 86 304 294 292 299 324 306 294 298 298
147 148 171 113 177 266 126 47 139 176 353 27 50 89 100 103 96 99 102 101 101 106 102 102 103 107 105 113 108 118 114 124 125 110 243 280 295 318 318 303 295 299 298 296
170 187 167 177 210 154 63 79 0 107 109 70 95 100 110 109 110 115 114 114 118 114 110 105 114 110 99 96 115 120 132 117 112 140 293 326 336 322 309 303 302 306 301 306
175 124 174 158 189 165 144 81 331 109 104 93 98 107 111 118 120 117 116 119 116 116 120 120 119 114 111 98 91 113 117 122 129 14 357 343 327 313 323 313 300 306 306 306
168 131 166 119 113 92 213 170 119 97 95 93 84 102 113 115 115 122 126 126 126 127 117 125 133 129 130 135 113 111 116 101 57 25 348 325 324 323 316 305 302 306 295 308
191 179 162 211 179 175 159 145 126 117 115 104 107 90 84 99 107 106 106 116 122 126 128 119 113 117 127 125 125 127 104 81 49 4 325 315 325 330 310 306 309 310 317 322